Hourly Data Report for March 13, 2012

All times are specified in Local Standard Time (LST). Add 1 hour to adjust for Daylight Saving Time where and when it is observed.

MIRAMICHI RCS
NEW BRUNSWICK

47°00'34.000" N
65°27'54.000" W
33.00 m
8100989
71744
ACQ

Download Data

Hourly Data (March 2012)
Hourly Data Report for March 13, 2012
TIME Temp Definition
°C
Dew Point Definition
°C
Rel Hum Definition
%
Wind Dir Definition
10's deg

Wind Spd Definition
km/h
Visibility Definition
km
Stn Press Definition
kPa
Hmdx Definition


Wind Chill Definition


Weather Definition


00:00 -1.6 -5.9 72 27 6   101.68   -4 LegendNANA
01:00 -1.3 -7.0 65 28 6   101.71   -4 LegendNANA
02:00 -1.1 -6.8 65 28 6   101.80   -3 LegendNANA
03:00 -1.7 -6.2 71 35 2   101.83   -2 LegendNANA
04:00 0.3 -8.2 53 5 17   101.89     LegendNANA
05:00 -1.0 -6.7 65 7 20   101.95   -7 LegendNANA
06:00 -1.9 -6.6 70 8 17   102.05   -7 LegendNANA
07:00 -2.5 -7.1 71 7 19   102.08   -8 LegendNANA
08:00 -2.6 -7.7 68 8 22   102.16   -9 LegendNANA
09:00 -2.9 -8.2 67 9 24   102.19   -10 LegendNANA
10:00 -3.1 -8.9 64 7 22   102.23   -9 LegendNANA
11:00 -3.5 -9.3 64 7 26   102.23   -11 LegendNANA
12:00 -3.8 -9.2 66 7 20   102.19   -10 LegendNANA
13:00 -3.7 -8.6 69 6 24   102.12   -11 LegendNANA
14:00 -4.3 -7.2 80 7 24   102.07   -11 LegendNANA
15:00 -5.2 -6.9 88 6 20   102.08   -12 LegendNANA
16:00 -5.4 -6.7 91 6 22   102.05   -12 LegendNANA
17:00 -5.4 -6.5 92 7 20   102.02   -12 LegendNANA
18:00 -5.4 -6.4 93 8 26   101.93   -13 LegendNANA
19:00 -5.5 -6.5 93 6 15   101.99   -11 LegendNANA
20:00 -5.6 -6.6 93 5 17   102.08   -12 LegendNANA
21:00 -5.2 -6.2 93 7 17   102.09   -11 LegendNANA
22:00 -4.9 -5.9 93 6 17   102.10   -11 LegendNANA
23:00 -4.6 -5.5 93 6 19   102.08   -11 LegendNANA

Notes on Data Quality.

Legend

  • E = Estimated
  • M = Missing
  • NA = Not Available
Date modified: